EW5495 Weather Reports


time (UTC)temp
C
wind
direction
speed
KPH
gust
KPH
rain 1hr
cm
rain 24hr
cm
rain mn
cm
humidity
%
barometer
mb
20190425054153 24 58 4.8 16.1 0.00 0.00 0.00 74 1017.1
20190425053253 25 60 4.8 12.9 0.00 0.00 0.00 73 1017.0
20190425052354 25 82 1.6 12.9 0.00 0.00 0.00 70 1017.0
20190425051453 25 86 4.8 12.9 0.00 0.00 0.00 69 1017.0
20190425050554 25 83 4.8 16.1 0.00 0.00 0.00 68 1016.9
20190425045654 25 66 4.8 9.7 0.00 0.00 0.00 68 1016.9
20190425044753 25 81 3.2 11.3 0.00 0.00 0.00 67 1016.9
20190425043853 25 96 4.8 12.9 0.00 0.00 0.00 68 1017.0
20190425042953 25 98 6.4 14.5 0.00 0.00 0.00 68 1017.1
20190425042053 25 89 4.8 12.9 0.00 0.00 0.00 67 1017.1
20190425041154 25 52 3.2 9.7 0.00 0.00 0.00 68 1017.1
20190425040253 25 91 4.8 11.3 0.00 0.00 0.00 67 1017.1
20190425035354 25 92 3.2 12.9 0.00 0.00 0.00 65 1017.2
20190425034453 26 93 4.8 16.1 0.00 0.00 0.00 65 1017.1
20190425033554 26 72 4.8 14.5 0.00 0.00 0.00 63 1017.2
20190425032653 26 74 4.8 14.5 0.00 0.00 0.00 64 1017.2
20190425031754 26 72 3.2 12.9 0.00 0.00 0.00 64 1017.4
20190425030854 26 48 4.8 16.1 0.00 0.00 0.00 62 1017.3
20190425025953 26 34 6.4 11.3 0.00 0.00 0.00 63 1017.4
20190425025054 26 47 3.2 11.3 0.00 0.00 0.00 67 1017.6
20190425024154 25 62 3.2 8.0 0.00 0.00 0.00 69 1017.8
20190425023254 25 83 3.2 6.4 0.00 0.00 0.00 70 1017.9
20190425022354 25 107 3.2 6.4 0.00 0.00 0.00 70 1018.1
20190425021454 25 95 3.2 12.9 0.00 0.00 0.00 70 1018.3
20190425020553 25 109 6.4 17.7 0.00 0.00 0.00 69 1018.5
20190425015654 25 148 8.0 16.1 0.00 0.00 0.00 68 1018.7
20190425014754 26 85 3.2 9.7 0.00 0.00 0.00 66 1019.0
20190425013854 25 122 4.8 16.1 0.00 0.00 0.00 68 1019.1
20190425012954 25 101 4.8 16.1 0.00 0.00 0.00 68 1019.3
20190425012054 25 78 4.8 16.1 0.00 0.00 0.00 69 1019.5
20190425011154 24 115 3.2 6.4 0.00 0.00 0.00 72 1019.6
20190425010254 24 127 4.8 12.9 0.00 0.00 0.00 72 1019.8
20190425005354 23 151 4.8 12.9 0.00 0.00 0.00 73 1019.9
20190425004454 24 152 3.2 6.4 0.00 0.00 0.00 71 1020.0
20190425003554 24 150 3.2 8.0 0.00 0.00 0.00 72 1020.1
20190425002654 24 164 1.6 8.0 0.00 0.00 0.00 70 1020.3
20190425001754 24 165 3.2 6.4 0.00 0.00 0.00 69 1020.5
20190425000854 24 160 4.8 9.7 0.00 0.00 0.00 71 1020.5
20190424235954 23 194 3.2 8.0 0.00 0.00 0.00 72 1020.5
20190424235054 23 213 3.2 6.4 0.00 0.00 0.00 75 1020.6
20190424234154 22 228 3.2 8.0 0.00 0.00 0.00 74 1020.7
20190424233254 22 237 3.2 9.7 0.00 0.00 0.00 75 1020.7
20190424232354 22 250 3.2 8.0 0.00 0.00 0.00 75 1020.7
20190424231454 22 215 3.2 8.0 0.00 0.00 0.00 75 1020.8
20190424230554 22 182 4.8 8.0 0.00 0.00 0.00 76 1020.9
20190424225654 22 225 3.2 8.0 0.00 0.00 0.00 76 1020.8
20190424224754 21 244 1.6 6.4 0.00 0.00 0.00 77 1020.9
20190424223854 21 296 1.6 4.8 0.00 0.00 0.00 78 1020.9
20190424222954 21 272 3.2 6.4 0.00 0.00 0.00 79 1020.8
20190424222054 21 276 1.6 4.8 0.00 0.00 0.00 79 1020.6
20190424221154 21 197 1.6 4.8 0.00 0.00 0.00 79 1020.7
20190424220254 20 217 1.6 4.8 0.00 0.00 0.00 80 1020.5
20190424215354 20 236 1.6 4.8 0.00 0.00 0.00 81 1020.5
20190424214454 20 196 3.2 6.4 0.00 0.00 0.00 82 1020.3
20190424213554 20 184 1.6 4.8 0.00 0.00 0.00 82 1020.1
20190424212654 19 158 1.6 4.8 0.00 0.00 0.00 84 1020.0
20190424211754 19 150 1.6 6.4 0.00 0.00 0.00 85 1019.9
20190424210854 18 0 0.0 4.8 0.00 0.00 0.00 87 1020.0
20190424205954 18 205 1.6 4.8 0.00 0.00 0.00 87 1019.9
20190424205054 19 0 0.0 1.6 0.00 0.00 0.00 89 1019.9
20190424204154 19 0 0.0 1.6 0.00 0.00 0.00 89 1019.9
20190424203254 19 0 0.0 1.6 0.00 0.00 0.00 88 1019.9
20190424202354 19 0 0.0 1.6 0.00 0.00 0.00 88 1019.9
20190424201454 19 0 0.0 3.2 0.00 0.00 0.00 88 1019.8
20190424200554 19 0 0.0 1.6 0.00 0.00 0.00 87 1019.8
20190424195654 19 0 0.0 1.6 0.00 0.00 0.00 87 1019.6
20190424194754 19 207 1.6 3.2 0.00 0.00 0.00 87 1019.5
20190424193854 19 0 0.0 3.2 0.00 0.00 0.00 87 1019.3
20190424192954 19 206 1.6 4.8 0.00 0.00 0.00 87 1019.3
20190424192054 19 207 1.6 4.8 0.00 0.00 0.00 87 1019.5
20190424191154 19 0 0.0 3.2 0.00 0.00 0.00 87 1019.5
20190424190254 19 207 1.6 3.2 0.00 0.00 0.00 86 1019.4
20190424185354 19 207 1.6 3.2 0.00 0.00 0.00 85 1019.4
20190424184454 19 207 1.6 3.2 0.00 0.00 0.00 84 1019.4
20190424183554 19 0 0.0 3.2 0.00 0.00 0.00 83 1019.3
20190424182654 19 0 0.0 3.2 0.00 0.00 0.00 83 1019.3
20190424181754 19 155 1.6 3.2 0.00 0.00 0.00 83 1019.0
20190424180854 20 0 0.0 3.2 0.00 0.00 0.00 82 1019.0
20190424175954 20 0 0.0 3.2 0.00 0.00 0.00 81 1019.1
20190424175054 20 0 0.0 3.2 0.00 0.00 0.00 81 1019.1
20190424174154 20 149 1.6 6.4 0.00 0.00 0.00 81 1019.1
20190424173254 20 141 3.2 11.3 0.00 0.00 0.00 81 1018.9
20190424172354 20 169 3.2 6.4 0.00 0.00 0.00 82 1018.7
20190424171454 20 195 1.6 3.2 0.00 0.00 0.00 83 1018.8
20190424170554 20 200 1.6 4.8 0.00 0.00 0.00 84 1019.0
20190424165654 20 0 0.0 3.2 0.00 0.00 0.00 86 1019.2
20190424164754 20 0 0.0 1.6 0.00 0.00 0.00 86 1019.4
20190424163854 20 0 0.0 3.2 0.00 0.00 0.00 86 1019.6
20190424162954 20 0 0.0 1.6 0.00 0.00 0.00 86 1019.6
20190424162054 20 0 0.0 0.0 0.00 0.00 0.00 86 1019.8
20190424161154 20 0 0.0 1.6 0.00 0.00 0.00 85 1020.0
20190424160254 20 0 0.0 3.2 0.00 0.00 0.00 85 1020.1
20190424155354 20 349 1.6 3.2 0.00 0.00 0.00 85 1020.2
20190424154454 20 349 1.6 3.2 0.00 0.00 0.00 85 1020.1
20190424153554 20 0 0.0 0.0 0.00 0.00 0.00 85 1020.1
20190424152654 20 0 0.0 0.0 0.00 0.00 0.00 85 1020.0
20190424151754 20 0 0.0 0.0 0.00 0.00 0.00 84 1020.0
20190424150854 20 0 0.0 0.0 0.00 0.00 0.00 85 1020.1
20190424145954 20 0 0.0 0.0 0.00 0.00 0.00 83 1020.2
20190424145054 20 0 0.0 0.0 0.00 0.00 0.00 83 1020.1
20190424144154 20 0 0.0 0.0 0.00 0.00 0.00 82 1020.2
20190424143254 20 0 0.0 0.0 0.00 0.00 0.00 82 1020.2
20190424142354 21 0 0.0 0.0 0.00 0.00 0.00 82 1020.4
20190424141454 21 0 0.0 0.0 0.00 0.00 0.00 81 1020.6
20190424140554 20 0 0.0 0.0 0.00 0.00 0.00 82 1020.7
20190424135655 20 0 0.0 0.0 0.00 0.00 0.00 82 1020.6
20190424134754 21 0 0.0 0.0 0.00 0.00 0.00 81 1020.6
20190424133855 21 0 0.0 0.0 0.00 0.00 0.00 81 1020.6
20190424132954 21 0 0.0 1.6 0.00 0.00 0.00 81 1020.8
20190424132055 21 102 1.6 1.6 0.00 0.00 0.00 80 1021.0
20190424131155 21 103 1.6 3.2 0.00 0.00 0.00 80 1021.2
20190424130255 21 0 0.0 3.2 0.00 0.00 0.00 79 1021.1
20190424125354 21 0 0.0 3.2 0.00 0.00 0.00 79 1021.0
20190424124454 21 103 1.6 3.2 0.00 0.00 0.00 78 1021.2
20190424123554 21 0 0.0 3.2 0.00 0.00 0.00 77 1021.1
20190424122655 21 105 1.6 3.2 0.00 0.00 0.00 77 1021.1
20190424121755 21 0 0.0 4.8 0.00 0.00 0.00 78 1021.1
20190424120854 21 0 0.0 0.0 0.00 0.00 0.00 78 1021.2
20190424115955 21 0 0.0 0.0 0.00 0.00 0.00 78 1021.1
20190424115055 21 0 0.0 0.0 0.00 0.00 0.00 76 1021.2
20190424114154 22 0 0.0 1.6 0.00 0.00 0.00 76 1021.3
20190424113255 22 90 1.6 3.2 0.00 0.00 0.00 76 1021.4
20190424112355 22 92 1.6 6.4 0.00 0.00 0.00 76 1021.4
20190424111454 22 119 1.6 8.0 0.00 0.00 0.00 77 1021.4
20190424110554 22 106 1.6 4.8 0.00 0.00 0.00 77 1021.5
20190424105655 22 120 1.6 6.4 0.00 0.00 0.00 77 1021.5
20190424104755 22 0 0.0 4.8 0.00 0.00 0.00 77 1021.6
20190424103855 22 0 0.0 4.8 0.00 0.00 0.00 77 1021.6
20190424102955 22 0 0.0 3.2 0.00 0.00 0.00 77 1021.6
20190424102055 22 0 0.0 3.2 0.00 0.00 0.00 77 1021.5
20190424101155 22 0 0.0 3.2 0.00 0.00 0.00 77 1021.3
20190424100255 22 94 1.6 4.8 0.00 0.00 0.00 76 1021.4
20190424095355 22 0 0.0 3.2 0.00 0.00 0.00 76 1021.5
20190424094455 22 94 1.6 4.8 0.00 0.00 0.00 76 1021.3
20190424093555 22 101 3.2 9.7 0.00 0.00 0.00 76 1021.3
20190424092655 22 90 1.6 9.7 0.00 0.00 0.00 76 1021.3
20190424091755 22 98 3.2 6.4 0.00 0.00 0.00 75 1021.2
20190424090855 22 98 3.2 9.7 0.00 0.00 0.00 75 1021.2
20190424085955 22 89 1.6 6.4 0.00 0.00 0.00 74 1021.1
20190424085055 22 94 3.2 6.4 0.00 0.00 0.00 74 1021.1
20190424084155 22 82 1.6 9.7 0.00 0.00 0.00 73 1020.9
20190424083255 22 100 1.6 6.4 0.00 0.00 0.00 71 1020.8
20190424082355 23 104 4.8 11.3 0.00 0.00 0.00 70 1020.6
20190424081455 23 96 6.4 17.7 0.00 0.00 0.00 69 1020.6
20190424080555 23 106 6.4 16.1 0.00 0.00 0.00 69 1020.6
20190424075655 23 107 4.8 12.9 0.00 0.00 0.00 68 1020.5
20190424074755 23 107 6.4 16.1 0.00 0.00 0.00 68 1020.5
20190424073855 23 114 6.4 16.1 0.00 0.00 0.00 68 1020.3
20190424072955 23 100 8.0 29.0 0.00 0.00 0.00 68 1020.2
20190424072055 23 100 8.0 22.5 0.00 0.00 0.00 68 1020.1
20190424071155 23 104 6.4 17.7 0.00 0.00 0.00 68 1020.1
20190424070255 23 101 8.0 17.7 0.00 0.00 0.00 68 1020.1
20190424065355 23 94 6.4 20.9 0.00 0.00 0.00 67 1019.9
20190424064455 23 106 8.0 19.3 0.00 0.00 0.00 66 1019.9
20190424063555 23 97 8.0 19.3 0.00 0.00 0.00 66 1019.8
20190424062655 23 97 8.0 22.5 0.00 0.00 0.00 65 1019.8
20190424061755 24 90 8.0 20.9 0.00 0.00 0.00 65 1019.9
20190424060855 24 103 8.0 20.9 0.00 0.00 0.00 66 1019.8
20190424055955 24 126 9.7 20.9 0.00 0.00 0.00 65 1019.7
20190424055055 24 127 9.7 19.3 0.00 0.00 0.00 64 1019.7